Stations météo

réclame
Mon MeteoGroup
Cambridge (NIAB), Grande-Bretagne (99123): Température de l'air & dewpoint: 22.03.2020 20:00:00 - 28.03.2020 20:00:00 (GMT)Cambridge (NIAB), Grande-Bretagne (99123): Quantités de précipitations: 22.03.2020 20:00:00 - 28.03.2020 20:00:00 (GMT)
Date & Time tt [°C] td [°C] rr [mm]
28.03.2020 20:00:00 5,5 0,1 0,0
28.03.2020 19:00:00 5,5 0,7 0,0
28.03.2020 18:00:00 7,0 0,5 0,0
28.03.2020 17:00:00 7,7 1,6 0,0
28.03.2020 16:00:00 8,9 -0,3 0,0
28.03.2020 15:00:00 9,4 1,2 0,0
28.03.2020 14:00:00 8,8 1,8 0,0
28.03.2020 13:00:00 9,0 2,0 0,0
28.03.2020 12:00:00 8,4 2,3 0,0
28.03.2020 11:00:00 7,8 2,4 0,0
28.03.2020 10:00:00 8,2 2,8 0,0
28.03.2020 09:00:00 7,1 3,0 0,0
28.03.2020 08:00:00 6,5 3,2 0,0
28.03.2020 07:00:00 4,5 2,0 0,0
28.03.2020 06:00:00 3,7 1,2 0,0
28.03.2020 05:00:00 4,0 2,0 0,0
28.03.2020 04:00:00 4,1 2,1 0,0
28.03.2020 03:00:00 4,2 1,8 0,0
28.03.2020 02:00:00 4,3 1,7 0,0
28.03.2020 01:00:00 3,9 1,5 0,0
28.03.2020 00:00:00 4,0 1,5 0,0
27.03.2020 23:00:00 4,1 1,8 0,0
27.03.2020 22:00:00 4,8 2,5 0,0
27.03.2020 21:00:00 5,2 2,7 0,0
27.03.2020 20:00:00 5,4 2,0 0,0
27.03.2020 19:00:00 6,7 1,1 0,0
27.03.2020 18:00:00 8,5 0,0 0,0
27.03.2020 17:00:00 10,5 0,3 0,0
27.03.2020 16:00:00 11,9 -0,6 0,0
27.03.2020 15:00:00 12,2 -0,9 0,0
27.03.2020 14:00:00 12,4 0,0 0,0
27.03.2020 13:00:00 12,5 0,9 0,0
27.03.2020 12:00:00 12,2 -0,2 0,0
27.03.2020 11:00:00 10,9 -0,3 0,0
27.03.2020 10:00:00 9,7 1,8 0,0
27.03.2020 09:00:00 7,1 3,9 0,0
27.03.2020 08:00:00 3,1 2,4 0,0
27.03.2020 07:00:00 0,0 -0,3 0,0
27.03.2020 06:00:00 -0,9 -1,4 0,0
27.03.2020 05:00:00 -0,6 -1,2 0,0
27.03.2020 04:00:00 -0,8 -1,6 0,0
27.03.2020 03:00:00 -0,4 -1,3 0,0
27.03.2020 02:00:00 0,2 -1,2 0,0
27.03.2020 01:00:00 0,9 -1,0 0,0
27.03.2020 00:00:00 1,9 -0,5 0,0
26.03.2020 23:00:00 2,1 -1,2 0,0
26.03.2020 22:00:00 3,2 -1,3 0,0
26.03.2020 21:00:00 4,0 -2,0 0,0
26.03.2020 20:00:00 5,5 -3,5 0,0
26.03.2020 19:00:00 7,5 -5,0 0,0
26.03.2020 18:00:00 9,9 -5,0 0,0
26.03.2020 17:00:00 11,3 -4,5 0,0
26.03.2020 16:00:00 12,4 -4,1 0,0
26.03.2020 15:00:00 12,9 -3,1 0,0
26.03.2020 14:00:00 12,4 -4,1 0,0
26.03.2020 13:00:00 12,9 -3,0 0,0
26.03.2020 12:00:00 12,6 -2,0 0,0
26.03.2020 11:00:00 10,4 -0,4 0,0
26.03.2020 10:00:00 8,4 0,8 0,0
26.03.2020 09:00:00 5,4 2,3 0,0
26.03.2020 08:00:00 1,5 0,2 0,0
26.03.2020 07:00:00 -1,3 -2,0 0,0
26.03.2020 06:00:00 -2,5 -3,1 0,0
26.03.2020 05:00:00 -2,7 -3,7 0,0
26.03.2020 04:00:00 -1,9 -3,2 0,0
26.03.2020 03:00:00 -1,2 -2,6 0,0
26.03.2020 02:00:00 -1,6 -3,3 0,0
26.03.2020 01:00:00 -1,2 -3,5 0,0
26.03.2020 00:00:00 -0,9 -3,6 0,0
25.03.2020 23:00:00 2,1 -3,2 0,0
25.03.2020 22:00:00 3,6 -3,5 0,0
25.03.2020 21:00:00 5,1 -4,1 0,0
25.03.2020 20:00:00 6,7 -3,6 0,0
25.03.2020 19:00:00 8,3 -4,8 0,0
25.03.2020 18:00:00 10,3 -4,7 0,0
25.03.2020 17:00:00 11,6 -5,2 0,0
25.03.2020 16:00:00 12,7 -3,9 0,0
25.03.2020 15:00:00 12,9 -3,9 0,0
25.03.2020 14:00:00 12,7 -4,0 0,0
25.03.2020 13:00:00 12,5 -4,4 0,0
25.03.2020 12:00:00 11,7 -4,6 0,0
25.03.2020 11:00:00 11,6 -3,9 0,0
25.03.2020 10:00:00 9,5 -1,4 0,0
25.03.2020 09:00:00 7,7 -0,4 0,0
25.03.2020 08:00:00 4,5 1,1 0,0
25.03.2020 07:00:00 -0,4 -0,6 0,0
25.03.2020 06:00:00 -2,1 -2,7 0,0
25.03.2020 05:00:00 -2,3 -3,2 0,0
25.03.2020 04:00:00 -0,1 -1,4 0,0
25.03.2020 03:00:00 0,8 -0,6 0,0
25.03.2020 02:00:00 2,2 0,3 0,0
25.03.2020 01:00:00 1,6 -0,4 0,0
25.03.2020 00:00:00 1,2 -1,1 0,0
24.03.2020 23:00:00 2,6 -0,7 0,0
24.03.2020 22:00:00 5,2 0,0 0,0
24.03.2020 21:00:00 6,0 0,0 0,0
24.03.2020 20:00:00 7,0 -0,6 0,0
24.03.2020 19:00:00 8,5 0,7 0,0
24.03.2020 18:00:00 11,8 0,6 0,0
24.03.2020 17:00:00 13,6 -0,1 0,0
24.03.2020 16:00:00 14,0 0,2 0,0
24.03.2020 15:00:00 14,2 -1,3 0,0
24.03.2020 14:00:00 13,4 -0,9 0,0
24.03.2020 13:00:00 12,8 -0,9 0,0
24.03.2020 12:00:00 12,1 -0,8 0,0
24.03.2020 11:00:00 10,5 -0,2 0,0
24.03.2020 10:00:00 8,4 -0,9 0,0
24.03.2020 09:00:00 6,9 -0,8 0,0
24.03.2020 08:00:00 4,9 -2,1 0,0
24.03.2020 07:00:00 3,4 -2,6 0,0
24.03.2020 06:00:00 2,6 -2,7 0,0
24.03.2020 05:00:00 3,1 -2,3 0,0
24.03.2020 04:00:00 2,0 -2,2 0,0
24.03.2020 03:00:00 2,3 -1,3 0,0
24.03.2020 02:00:00 0,2 -0,1 0,0
24.03.2020 01:00:00 -1,3 -2,6 0,0
24.03.2020 00:00:00 1,0 -0,8 0,0
23.03.2020 23:00:00 2,8 -0,5 0,0
23.03.2020 22:00:00 3,7 -0,5 0,0
23.03.2020 21:00:00 2,3 -2,3 0,0
23.03.2020 20:00:00 5,1 -2,3 0,0
23.03.2020 19:00:00 6,5 -2,6 0,0
23.03.2020 18:00:00 7,4 -2,7 0,0
23.03.2020 17:00:00 9,0 -2,1 0,0
23.03.2020 16:00:00 10,2 -1,9 0,0
23.03.2020 15:00:00 10,9 -2,3 0,0
23.03.2020 14:00:00 11,0 -1,5 0,0
23.03.2020 13:00:00 10,9 -2,7 0,0
23.03.2020 12:00:00 10,0 -1,8 0,0
23.03.2020 11:00:00 9,3 -0,6 0,0
23.03.2020 10:00:00 8,0 -1,2 0,0
23.03.2020 09:00:00 6,3 -0,6 0,0
23.03.2020 08:00:00 5,3 -0,6 0,0
23.03.2020 07:00:00 2,9 -1,1 0,0
23.03.2020 06:00:00 2,2 -1,2 0,0
23.03.2020 05:00:00 2,0 -0,8 0,0
23.03.2020 04:00:00 2,0 -0,6 0,0
23.03.2020 03:00:00 2,3 -0,4 0,0
23.03.2020 02:00:00 1,4 -0,9 0,0
23.03.2020 01:00:00 0,8 -0,9 0,0
23.03.2020 00:00:00 0,3 -1,8 0,0
22.03.2020 23:00:00 1,7 -0,9 0,0
22.03.2020 22:00:00 2,1 -1,1 0,0
22.03.2020 21:00:00 2,7 -1,1 0,0
22.03.2020 20:00:00 4,3 -0,8 0,0

tt = Température de l'air
td = dewpoint
rr = Quantités de précipitations

stations d'obs. à proximité